Flag for Norway Weather past 2 weeks in Molde, Norway

Now
39 °F

Scattered showers. Scattered clouds.


Feels Like: 34 °F
Forecast: 38 / 44 °F
Wind: 7 mph from Northwest

Location: Molde / Aro

Current Time: Jan 26, 2015 at 4:11:29 PM

Latest Report: Jan 26, 2015 at 3:20 PM


Visibility: N/A

Pressure: 29.59 "Hg

Humidity: 81%

Dew point: 34 °F

Location of MoldeLocation

Historic Weather in Molde — Graph

°F

Molde temperature yesterday

Maximum temperature yesterday: 45 °F (at 10:20 PM)
Minimum temperature yesterday: 34 °F (at 10:20 AM)
Average temperature yesterday: 37 °F

Past Weeks' High & Low Weather Summary

 TemperatureHumidityPressure
High45 °F (Jan 15, 1:50 PM)100% (Jan 12, 9:50 AM)30.21 "Hg (Jan 12, 9:50 AM)
Low21 °F (Jan 22, 7:20 AM)44% (Jan 20, 5:50 PM)28.53 "Hg (Jan 12, 7:20 PM)
Average35 °F73%29.41 "Hg
* Reported Jan 11 2:20 PM — Jan 26 2:50 PM, Molde, Weather by CustomWeather, © 2014

Note: Actual official high and low records may vary slightly from our data, if they occured in-between our weather recording intervals... More about our weather records

Advertising

Molde weather history for previous 24 hours

 ConditionsComfort  
Time TempWeatherWind HumidityBarometerVisibility
2:50 PM
Jan 26
41 °FSprinkles. Broken clouds.17 mph76%29.59 "HgN/A
2:20 PM39 °FSprinkles. Broken clouds.15 mph81%29.59 "HgN/A
1:50 PM39 °FScattered showers. Partly sunny.9 mph81%29.56 "HgN/A
12:50 PM41 °FScattered showers. Broken clouds.12 mph76%29.56 "HgN/A
12:20 PM39 °FScattered showers. Broken clouds.8 mph81%29.56 "HgN/A
11:20 AM41 °FScattered showers. Broken clouds.8 mph76%29.56 "HgN/A
10:50 AM41 °FPartly sunny.6 mph76%29.56 "HgN/A
10:20 AM41 °FPartly sunny.9 mph76%29.56 "HgN/A
9:50 AM39 °FPartly sunny.7 mph81%29.56 "HgN/A
9:20 AM39 °FScattered showers. Partly sunny.15 mph81%29.56 "HgN/A
8:50 AM39 °FScattered showers. Passing clouds.12 mph81%29.56 "HgN/A
8:20 AM39 °FScattered showers. Passing clouds.12 mph81%29.56 "HgN/A
7:50 AM39 °FSprinkles. Passing clouds.24 mph87%29.56 "HgN/A
7:20 AM43 °FScattered showers. Passing clouds.12 mph76%29.56 "HgN/A
6:50 AM43 °FScattered showers. Passing clouds.14 mph76%29.53 "HgN/A
6:20 AM41 °FScattered showers. Passing clouds.21 mph81%29.53 "HgN/A
5:50 AM41 °FScattered showers. Passing clouds.12 mph81%29.53 "HgN/A
10:50 PM
Jan 25
43 °FSprinkles. Passing clouds.3 mph76%29.53 "HgN/A
10:20 PM45 °FPassing clouds.No wind71%29.53 "HgN/A
9:50 PM37 °FPassing clouds.3 mph87%29.53 "HgN/A
9:20 PM37 °FPassing clouds.6 mph87%29.56 "HgN/A
8:50 PM37 °FPassing clouds.9 mph87%29.56 "HgN/A
8:20 PM36 °FPassing clouds.7 mph93%29.56 "HgN/A
7:50 PM36 °FPassing clouds.7 mph93%29.59 "HgN/A
7:20 PM37 °FPassing clouds.7 mph87%29.59 "HgN/A
6:50 PM37 °FPassing clouds.9 mph87%29.62 "HgN/A
6:20 PM37 °FPassing clouds.10 mph81%29.62 "HgN/A
5:50 PM37 °FPassing clouds.10 mph81%29.65 "HgN/A
5:20 PM37 °FPassing clouds.12 mph81%29.65 "HgN/A
4:50 PM37 °FPassing clouds.15 mph81%29.68 "HgN/A
4:20 PM37 °FPassing clouds.10 mph81%29.71 "HgN/A
Weather by CustomWeather, © 2014

See weather overviewHow to use our weather pages